Location: Taukkyan
(23.1052°N, 94.0030°E)
Time: 11:13:34
(UTC+00:00)

HJ-1C - Pass Details

Date: 06 July 2020
Orbit: 431 x 446 km, 97.2° (Epoch: 15 August)

Event Time Altitude Azimuth Distance (km) Brightness Sun altitude
Rises 13:09:45 0° 175° (S) 2,402 6.8 -8.2°
Reaches altitude 10° 13:11:47 10° 179° (S) 1,540 5.8 -8.6°
Maximum altitude 13:15:02 59° 260° (W) 512 3.9 -9.3°
Drops below altitude 10° 13:18:19 10° 340° (NNW) 1,555 6.9 -9.9°
Sets 13:20:22 0° 345° (NNW) 2,430 7.9 -10.3°
